Date String (YYYY-MM-DD hh:mm:ss) UTC,Instrument flags,Ambient pressure (hPa),Sample flow (lpm),Bypass flow (lpm),Sample temperature (°C),Ambient temperature (°C),ASC tube jacket temperature (°C),LED temperature (°C),Box temperature (°C),Sample RH (%),Span deviation,Mass concentration (μg/m³),Mass concentration (μg/m³),Mass concentration (μg/m³)
DateTimeUTC,F1_M11,P_M11,Q1_M11,Q2_M11,T1_M11,T2_M11,T3_M11,T4_M11,T5_M11,U1_M11,ZSPAN_M11,X2_M11,X0_M11,X1_M11
2021-12-28 09:00:00,,0805.0,5.00,0.00,22.3,21.8,00.0,31.2,24.0,09.8,0000.0,0000.91,0002.77,0000.61
2021-12-28 09:01:00,,0805.0,5.00,0.00,22.2,21.7,00.0,31.2,23.9,09.9,0000.0,0000.91,0002.78,0000.61
2021-12-28 09:02:00,,0805.0,4.99,0.00,22.2,21.7,00.0,31.2,23.9,09.9,0000.0,0000.91,0002.78,0000.60
2021-12-28 09:03:00,,0805.0,5.01,0.00,22.2,21.6,00.0,31.2,23.9,09.9,0000.0,0000.91,0002.80,0000.59
2021-12-28 09:04:00,,0804.9,4.99,0.00,22.2,21.6,00.0,31.2,23.9,09.9,0000.0,0000.90,0003.35,0000.58
2021-12-28 09:05:00,,0804.9,5.00,0.00,22.2,21.6,00.0,31.2,23.9,09.9,0000.0,0000.89,0004.90,0000.57
2021-12-28 09:06:00,,0804.9,5.00,0.00,22.2,21.6,00.0,31.2,24.0,09.9,0000.0,0000.88,0006.09,0000.56
2021-12-28 09:07:00,,0805.0,4.99,0.00,22.2,21.6,00.0,31.2,24.0,09.9,0000.0,0000.91,0006.13,0000.56
2021-12-28 09:08:00,,0805.0,5.00,0.00,22.2,21.6,00.0,31.2,24.0,09.9,0000.0,0000.93,0006.26,0000.55
2021-12-28 09:09:00,,0805.1,4.99,0.00,22.2,21.6,00.0,31.2,24.0,09.8,0000.0,0000.92,0005.73,0000.55
2021-12-28 09:10:00,,0805.1,5.00,0.00,22.2,21.6,00.0,31.2,24.0,09.8,0000.0,0000.95,0005.41,0000.56
2021-12-28 09:11:00,,0805.1,5.00,0.00,22.2,21.6,00.0,31.2,24.0,09.7,0000.0,0000.99,0005.66,0000.57
2021-12-28 09:12:00,,0805.1,4.99,0.00,22.3,21.6,00.0,31.2,24.0,09.7,0000.0,0001.01,0005.92,0000.58
2021-12-28 09:13:00,,0805.1,5.02,0.00,22.3,21.6,00.0,31.2,24.0,09.9,0000.0,0001.03,0006.02,0000.58
2021-12-28 09:14:00,,0805.1,5.00,0.00,22.3,21.6,00.0,31.2,24.0,10.1,0000.0,0001.01,0007.27,0000.58
2021-12-28 09:15:00,,0805.2,4.99,0.00,22.3,21.6,00.0,31.2,24.0,10.3,0000.0,0001.04,0007.17,0000.59
2021-12-28 09:16:00,,0805.2,5.02,0.00,22.3,21.6,00.0,31.2,24.0,10.9,0000.0,0001.02,0005.70,0000.58
2021-12-28 09:17:00,,0805.2,4.99,0.00,22.3,21.6,00.0,31.2,23.9,11.2,0000.0,0001.06,0004.22,0000.57
2021-12-28 09:18:00,,0805.2,5.01,0.00,22.2,21.6,00.0,31.2,23.9,11.3,0000.0,0001.04,0004.55,0000.56
2021-12-28 09:19:00,,0805.3,5.00,0.00,22.2,21.6,00.0,31.2,23.9,11.4,0000.0,0001.01,0004.71,0000.53
2021-12-28 09:20:00,,0805.3,4.99,0.00,22.2,21.6,00.0,31.2,24.0,11.4,0000.0,0001.00,0004.62,0000.52
2021-12-28 09:21:00,,0805.3,5.01,0.00,22.2,21.5,00.0,31.2,24.0,11.4,0000.0,0000.95,0004.32,0000.48
2021-12-28 09:22:00,,0805.3,4.99,0.00,22.2,21.5,00.0,31.2,24.0,11.2,0000.0,0000.93,0004.22,0000.44
2021-12-28 09:23:00,,0805.2,5.01,0.00,22.2,21.5,00.0,31.2,24.0,11.4,0000.0,0000.92,0004.09,0000.40
2021-12-28 09:24:00,,0805.3,5.00,0.00,22.2,21.5,00.0,31.2,24.0,11.5,0000.0,0000.88,0004.01,0000.37
2021-12-28 09:25:00,,0805.3,5.00,0.00,22.2,21.5,00.0,31.2,24.0,11.7,0000.0,0000.85,0003.06,0000.34
2021-12-28 09:26:00,,0805.3,5.01,0.00,22.2,21.5,00.0,31.2,24.0,11.7,0000.0,0000.80,0002.40,0000.31
2021-12-28 09:27:00,,0805.3,5.01,0.00,22.2,21.5,00.0,31.2,23.9,11.8,0000.0,0000.75,0002.32,0000.29
2021-12-28 09:28:00,,0805.3,4.99,0.00,22.2,21.5,00.0,31.2,23.9,12.0,0000.0,0000.71,0002.25,0000.28
2021-12-28 09:29:00,,0805.2,5.02,0.00,22.2,21.5,00.0,31.2,23.9,11.9,0000.0,0000.70,0002.08,0000.28
2021-12-28 09:30:00,,0805.2,4.99,0.00,22.2,21.5,00.0,31.2,23.9,11.8,0000.0,0000.71,0002.42,0000.27
2021-12-28 09:31:00,,0805.2,5.00,0.00,22.2,21.5,00.0,31.2,23.9,11.9,0000.0,0000.72,0002.86,0000.28
2021-12-28 09:32:00,,0805.3,5.01,0.00,22.2,21.8,00.0,31.2,23.9,12.0,0000.0,0000.73,0003.19,0000.28
2021-12-28 09:33:00,,0805.2,4.99,0.00,22.3,22.5,00.0,31.3,24.2,12.1,0000.0,0000.70,0003.05,0000.28
2021-12-28 09:34:00,,0805.3,5.00,0.00,22.5,23.2,00.0,31.3,24.4,12.1,0000.0,0000.67,0002.91,0000.27
2021-12-28 09:35:00,,0805.3,5.02,0.00,22.6,23.1,00.0,31.3,24.5,12.1,0000.0,0000.65,0002.89,0000.27
2021-12-28 09:36:00,,0805.2,4.99,0.00,22.6,22.9,00.0,31.4,24.4,12.2,0000.0,0000.67,0002.96,0000.27
2021-12-28 09:37:00,,0805.3,5.01,0.00,22.5,22.7,00.0,31.4,24.3,12.2,0000.0,0000.68,0003.00,0000.28
2021-12-28 09:38:00,,0805.2,4.99,0.00,22.5,22.5,00.0,31.4,24.3,12.3,0000.0,0000.66,0002.95,0000.27
2021-12-28 09:39:00,,0805.2,5.01,0.00,22.5,22.3,00.0,31.4,24.2,12.4,0000.0,0000.61,0002.83,0000.26
2021-12-28 09:40:00,,0805.2,5.01,0.00,22.5,22.1,00.0,31.4,24.2,12.5,0000.0,0000.56,0002.62,0000.26
2021-12-28 09:41:00,,0805.3,4.99,0.00,22.4,22.0,00.0,31.4,24.1,12.6,0000.0,0000.54,0001.91,0000.26
2021-12-28 09:42:00,,0805.3,5.00,0.00,22.4,21.9,00.0,31.4,24.1,12.6,0000.0,0000.54,0001.70,0000.25
2021-12-28 09:43:00,,0805.3,5.01,0.00,22.4,21.9,00.0,31.4,24.0,12.6,0000.0,0000.53,0001.45,0000.24
2021-12-28 09:44:00,,0805.3,5.01,0.00,22.4,21.8,00.0,31.4,24.1,12.6,0000.0,0000.53,0002.22,0000.24
2021-12-28 09:45:00,,0805.2,5.00,0.00,22.4,21.8,00.0,31.4,24.1,12.6,0000.0,0000.52,0002.31,0000.24
2021-12-28 09:46:00,,0805.2,4.99,0.00,22.3,21.7,00.0,31.4,24.0,12.7,0000.0,0000.54,0002.33,0000.24
2021-12-28 09:47:00,,0805.3,5.00,0.00,22.3,21.7,00.0,31.4,24.0,12.8,0000.0,0000.58,0002.42,0000.24
2021-12-28 09:48:00,,0805.3,5.02,0.00,22.3,21.6,00.0,31.4,24.0,12.8,0000.0,0000.59,0002.65,0000.24
2021-12-28 09:49:00,,0805.4,4.99,0.00,22.3,21.6,00.0,31.4,24.0,12.8,0000.0,0000.64,0003.03,0000.24
2021-12-28 09:50:00,,0805.5,5.01,0.00,22.3,21.6,00.0,31.3,23.9,12.8,0000.0,0000.69,0003.14,0000.25
2021-12-28 09:51:00,,0805.6,4.99,0.00,22.3,21.5,00.0,31.3,23.9,12.8,0000.0,0000.72,0003.26,0000.25
2021-12-28 09:52:00,,0805.6,5.01,0.00,22.2,21.5,00.0,31.3,23.9,12.8,0000.0,0000.71,0003.24,0000.25
2021-12-28 09:53:00,,0805.6,4.99,0.00,22.2,21.5,00.0,31.3,23.9,12.9,0000.0,0000.67,0003.10,0000.24
2021-12-28 09:54:00,,0805.6,5.01,0.00,22.2,21.5,00.0,31.3,23.9,12.9,0000.0,0000.69,0003.28,0000.25
2021-12-28 09:55:00,,0805.6,4.99,0.00,22.2,21.5,00.0,31.3,23.9,13.0,0000.0,0000.69,0002.50,0000.25
2021-12-28 09:56:00,,0805.6,4.99,0.00,22.2,21.5,00.0,31.3,23.9,13.1,0000.0,0000.69,0002.72,0000.25
2021-12-28 09:57:00,,0805.5,5.01,0.00,22.2,21.4,00.0,31.3,23.8,13.1,0000.0,0000.68,0002.90,0000.26
2021-12-28 09:58:00,,0805.5,4.99,0.00,22.2,21.4,00.0,31.3,23.8,13.2,0000.0,0000.64,0002.84,0000.26
2021-12-28 09:59:00,,0805.4,5.00,0.00,22.2,21.4,00.0,31.2,23.8,13.3,0000.0,0000.62,0002.57,0000.25
